Location: downtown San Diego
(32.7310°N, 117.1990°W)
Time: 13:38:51
(UTC-07:00)

Cosmos 2219 - Pass Details

Date: 12 July 2018
Orbit: 834 x 859 km, 71.1° (Epoch: 22 July)

Event Time Altitude Azimuth Distance (km) Brightness Sun altitude
Rises 23:00:23 0° 341° (NNW) 3,391 7.5 -29.0°
Reaches altitude 10° 23:02:51 10° 343° (NNW) 2,451 6.5 -29.3°
Enters shadow 23:07:47 66° 14° (NNE) 906 3.4 -29.8°
